Regional Weather Roundup
Issued by NWS

Home | Current Version | Previous Version | Text Only | Print | Product List | Glossary On
Versions: 1 2 3 4 5 6 7 8 9 10 11 12 13 14 15 16 17 18 19 20 21 22 23 24 25 26 27 28 29 30 31 32 33 34 35 36 37 38 39 40 41 42 43 44 45 46 47 48 49 50
187
ASUS44 KJAN 300510
RWRMS

MISSISSIPPI HOURLY WEATHER ROUNDUP
NATIONAL WEATHER SERVICE JACKSON MS
1200 AM CDT MON MAR 30 2015

NOTE: "FAIR: INDICATES FEW OR NO CLOUDS BELOW 12,000 FEET WITH NO
SIGNIFICANT WEATHER AND/OR OBSTRUCTIONS TO VISIBILITY.

MSZ001>002-007>008-010>013-018>021-025>028-034>036-300600-
NORTHWEST MISSISSIPPI

CITY           SKY/WX    TMP DP  RH WIND       PRES   REMARKS
CLARKSDALE     CLOUDY    68  57  68 SW14G21   30.05R
CLEVELAND      FAIR      67  59  75 SW18G25   30.05F
GREENWOOD      PTCLDY    68  54  60 SW16      30.09F
GREENVILLE     PTCLDY    69  56  62 SW16      30.06F
OLIVE BRANCH   CLOUDY    61  57  88 NW13      30.06R
OXFORD         FAIR      63  50  63 S9G16     30.04F
TUNICA         MOCLDY    61  55  82 NW8       30.05R THUNDER
$$

MSZ003>006-009-014>017-022>024-029>033-037>039-300600-
NORTHEAST MISSISSIPPI

CITY           SKY/WX    TMP DP  RH WIND       PRES   REMARKS
COLUMBUS AFB   CLEAR     63  54  72 S14       30.10F
CORINTH        TSTM      55  52  88 SW9       30.04R
GOLDN TRIANGLE PTCLDY    61  52  72 S13       30.13F
STARKVILLE     FAIR      63  55  77 S7        30.12F
TUPELO         MOCLDY    59  48  67 SW13      30.05F
$$

MSZ040-058-300600-
CENTRAL MISSISSIPPI

CITY           SKY/WX    TMP DP  RH WIND       PRES   REMARKS
JACKSON INTL   CLOUDY    65  59  81 S7        30.18R
JACKSON HAWKNS CLOUDY    66  59  78 S8        30.18R
MERIDIAN KEY   MOCLDY    61  56  83 S12       30.19S
MERIDIAN NAS   NOT AVBL
RAYMOND        FAIR      66  61  82 S5        30.17R
VICKSBURG      CLEAR     68  57  68 SW5       30.17R
$$

MSZ059>079-300600-
SOUTH MISSISSIPPI

CITY           SKY/WX    TMP DP  RH WIND       PRES   REMARKS
BROOKHAVEN       N/A     64  61  88 S7        30.19R
HATTIESBURG    CLEAR     61  58  90 S6        30.20F
MCCOMB         CLEAR     64  58  80 S8        30.18F
NATCHEZ        PTCLDY    66  57  72 SW7       30.18R
PINE BELT      PTCLDY    61  55  82 S6        30.21R
$$

MSZ080>082-300600-
COASTAL MISSISSIPPI

CITY           SKY/WX    TMP DP  RH WIND       PRES   REMARKS
BILOXI         CLEAR     67  62  86 S15       30.21F
PASCAGOULA     CLEAR     65  61  87 S8        30.23F
GULFPORT       PTCLDY    67  61  81 S9        30.21F
$$



USA.gov is the U.S. government's official web portal to all federal, state and local government web resources and services.